Location: Eaton Estates
(41.3089°N, 82.0057°W)
Time: 13:13:33
(UTC+00:00)

Cosmos 967 Rocket - Pass Details

Date: 17 June 2021
Orbit: 950 x 987 km, 65.8° (Epoch: 26 July)

Event Time Altitude Azimuth Distance (km) Brightness Sun altitude
Rises 04:40:32 0° 326° (NNW) 3,666 8.6 -24.3°
Reaches altitude 10° 04:43:06 10° 325° (NW) 2,721 7.7 -24.4°
Maximum altitude 04:49:27 73° 242° (WSW) 1,020 4.4 -24.7°
Enters shadow 04:50:47 56° 179° (S) 1,154 4.5 -24.7°
